{"data":{"norad_id":63228,"epoch":"2026-09-22T22:11:27.203424Z","epoch_age_seconds":99310,"freshness":"FRESH","line1":"1 63228U 25052U   26265.92462041  .00003880  00000+0  16084-3 0  9994","line2":"2 63228  97.3767 157.2178 0005714 147.7381 212.4207 15.24469585 84752","mean_motion":15.24469585,"eccentricity":0.0005714,"inclination_deg":97.3767,"raan_deg":157.2178,"arg_perigee_deg":147.7381,"mean_anomaly_deg":212.4207,"bstar":0.00016084,"rev_number":8475,"period_min":94.459083616286,"perigee_km":488.45281712025,"apogee_km":496.30444238193,"semimajor_km":6870.5156297511,"source":"CELESTRAK","updated_at":"2026-09-23T09:00:21.902574Z"}}